Regional Weather Roundup
Issued by NWS

Home | Current Version | Previous Version | Text Only | Print | Product List | Glossary On
Versions: 1 2 3 4 5 6 7 8 9 10 11 12 13 14 15 16 17 18 19 20 21 22 23 24 25 26 27
000
ASUS45 KTFX 222310
RWRMT
MONTANA REGIONAL WEATHER ROUNDUP
NATIONAL WEATHER SERVICE GREAT FALLS MT
500 PM MDT MON MAY 22 2017

NOTE: "FAIR" INDICATES FEW OR NO CLOUDS BELOW 12000 FEET WITH NO
SIGNIFICANT WEATHER AND/OR OBSTRUCTIONS TO VISIBILITY.

MTZ001>007-043-230000-
WEST OF THE DIVIDE

CITY           SKY/WX    TMP DP  RH WIND       PRES   REMARKS
KALISPELL      SUNNY     79  36  21 W3        30.15F
MISSOULA       SUNNY     77  37  23 N16       30.17F
BUTTE          CLOUDY    67  33  28 NE9       30.26S
MULLAN PASS    MOSUNNY   64  33  31 VRB3      30.31S
ANACONDA         N/A     68  34  28 N9        30.23R
DEER LODGE       N/A     70  37  30 N7        30.25S
EUREKA           N/A     81  36  19 CALM      30.13F
HAMILTON         N/A     75  37  25 N5        30.18S
LIBBY            N/A     81  36  19 NW7       30.12F
PLAINS           N/A     82  48  30 NE2       30.13F
RONAN            N/A     77  38  24 CALM      30.21F
$$

MTZ008-052>055-230000-
SOUTHWEST MONTANA

CITY           SKY/WX    TMP DP  RH WIND       PRES   REMARKS
BOZEMAN        CLOUDY    65  41  41 NE13      30.23S
DILLON         PTSUNNY   67  36  31 NE16      30.21S
W YELLOWSTONE  CLOUDY    57  34  41 NE14      30.28S
ENNIS          CLOUDY    63  36  36 N14G21    30.29R
THREE FORKS      N/A     70  36  28 NE10      30.19S
TWIN BRIDGES     N/A     71  35  26 N14       30.18S
$$

MTZ009-010-012-014-046-048-049-054-230000-
EAST SLOPES AND CENTRAL MONTANA

CITY           SKY/WX    TMP DP  RH WIND       PRES   REMARKS
CUT BANK       PTSUNNY   71  36  27 E5        30.20F
GREAT FALLS    CLOUDY    67  37  33 CALM      30.20F
HELENA         PTSUNNY   72  37  28 N15G22    30.21S
AUGUSTA        PTSUNNY   65  39  38 SE7       30.23S
BOWMANS CRNR   PTSUNNY   63  40  41 E9        30.22R
CHOTEAU          N/A     70  37  30 NE8       30.23S
CONRAD           N/A     71  43  36 NW2       30.21S
FAIRFIELD      PTSUNNY   69  36  30 CALM      30.21S
POWER          PTSUNNY   67  33  28 N14       30.20S
RAYNESFORD       N/A     65  34  32 W10       30.22S
ULM            PTSUNNY   68  43  39 S6        30.22R
$$

MTZ011-013-016-021-045-047-050-051-230000-
NORTH CENTRAL MONTANA

CITY           SKY/WX    TMP DP  RH WIND       PRES   REMARKS
HAVRE          SUNNY     74  26  16 N10G18    30.16S
LEWISTOWN      SUNNY     65  30  27 N13G22    30.20S
N BAR RANCH      N/A     63  30  29 N14G23    30.23R
CHINOOK          N/A     72  30  21 N8        30.16S
DENTON           N/A     68  35  29 N20G33    30.15F
GEYSER           N/A     67  34  29 NW10      30.21S
JUDITH GAP       N/A     63  38  38 N25G32    30.20S
STANFORD         N/A     64  37  37 NE12      30.22S
WINIFRED         N/A     68  31  25 N17       30.18S
$$

MTZ017>020-022>027-061-062-230000-
NORTHEAST MONTANA

CITY           SKY/WX    TMP DP  RH WIND       PRES   REMARKS
GLASGOW        CLOUDY    68  31  25 N20G29    30.13R
JORDAN           N/A     67  33  28 N18       30.14S
SIDNEY         MOSUNNY   67  35  30 N16       30.07S
WOLF POINT     CLOUDY    67  33  28 N10       30.10F
MALTA          PTSUNNY   68  34  28 NE10G21   30.15R
PLENTYWOOD       N/A     66  30  26 NW15G28   30.08S
POPLAR           N/A     64  34  32 N18       30.09F
SCOBEY           N/A     65  33  30 N14       30.10R
$$

MTZ028>42-056>058-230000-
SOUTHCENTRAL AND SOUTHEAST MONTANA

CITY           SKY/WX    TMP DP  RH WIND       PRES   REMARKS
BAKER          MOSUNNY   60  40  47 NW13      30.11S
BILLINGS       MOSUNNY   69  36  29 N15       30.17S
LIVINGSTON     MOSUNNY   63  41  44 SW7       30.24F
MILES CITY     CLOUDY    60  36  40 NE15G29   30.13R
BIG TIMBER     PTSUNNY   61  41  48 VRB8G17   30.25S
EKALAKA          N/A     56  37  48 N15       30.08S
FORSYTH          N/A     64  34  32 N10       30.13S
LAUREL           N/A     66  39  37 W8        30.16F
ROUNDUP          N/A     68  32  26 N9        30.08R
$$

REGIONAL REPORTS...DAKOTAS

CITY           SKY/WX    TMP DP  RH WIND       PRES   REMARKS
WILLISTON      CLOUDY    67  31  26 N18G26    30.06S
MINOT          CLOUDY    63  36  36 N16       29.96F
DICKINSON      CLOUDY    60  32  34 N16G23    30.03S
BEACH          CLOUDY    59  36  41 N12G21    30.12S
TIOGA          CLOUDY    63  32  31 N18G28    30.05S
WATFORD CITY   PTSUNNY   63  37  39 N14       30.05R
BISMARCK       CLOUDY    61  39  44 NW17      29.99S
GRAND FORKS    CLOUDY    52  49  89 N12       29.87F
FARGO          CLOUDY    51  44  77 N13       29.88R
BUFFALO SD       N/A     53  43  68 N20G37    30.02R
RAPID CITY     SUNNY     57  39  51 N23G35    30.07S
$$

REGIONAL REPORTS...WYOMING/IDAHO/WASHINGTON

CITY           SKY/WX    TMP DP  RH WIND       PRES   REMARKS
GILLETTE       PTSUNNY   56  42  59 N12       30.15S
SHERIDAN       PTSUNNY   59  42  53 W9        30.17F
BUFFALO WY     PTSUNNY   50  41  71 N12       30.20R
CODY           SUNNY     55  36  48 NW14      30.27S
YELLOWSTONE LA   N/A     51  28  41 N9G20     30.35F
IDAHO FALLS    PTSUNNY   74  36  25 SW13G20   30.17F
SALMON         SUNNY     75  37  25 CALM      30.12F
BOISE          SUNNY     81  31  16 N5G16     30.13F
SPOKANE        MOSUNNY   81  36  19 NW6       30.15F
$$

REGIONAL REPORTS...ALBERTA

CITY           SKY/WX    TMP DP  RH WIND       PRES   REMARKS
EDMONTON       MOSUNNY   77  43  29 W10       30.06F
CALGARY        PTSUNNY   77  37  24 SE10      30.14F
LETHBRIDGE     MOSUNNY   73  37  27 VRB5      30.17F
WATERTON GATE    N/A     72  36  26 NE5         N/A
CARDSTON         N/A     73  34  23 NE3         N/A
MILK RIVER       N/A     73  34  23 NE9G18      N/A
ONEFOUR          N/A     68  30  24 N12G22      N/A
$$

REGIONAL REPORTS...SASKATCHEWAN

CITY           SKY/WX    TMP DP  RH WIND       PRES   REMARKS
SWIFT CURRENT  MOSUNNY   68  30  24 N15       30.17R
REGINA         MOSUNNY   68  32  26 N16G22    30.09F
SASKATOON      PTSUNNY   72  30  21 N14       30.14F
CYPRESS HILLS    N/A     61  30  31 NE6         N/A
VAL MARIE        N/A     66  28  24 N12         N/A
ASSINIBOIA       N/A     77  36  22 SW5         N/A
$$




USA.gov is the U.S. government's official web portal to all federal, state and local government web resources and services.